Find OneWeb SL0027

NORAD ID: 45432 Int'l Des: 2020-020 Owner: ONEWEB Country: UK Constellation: oneweb operational
LEOCIRCULARPOLARONEWEB_TYPE

現在のビュー

3D地球を読み込み中...

About OneWeb SL0027

OneWeb SL0027 (NORAD 45432) is a oneweb constellation satellite launched Mar 21, 2020 by ONEWEB of UK. It operates in LEO, CIRCULAR, POLAR, ONEWEB_TYPE orbit with a mass of 148.00 kg.

OneWeb SL0027について

説明を読み込み中...

次回通過

Passes for default location (London). Set your location on the main map for personalized predictions.

高度履歴

Loading altitude history...

軌道要素

1 45432U 20020J 26170.23551541 .00000009 00000-0 -95416-5 0 9994
2 45432 87.9142 5.4575 0002018 103.3261 256.8096 13.17651603306620
Epoch: Jun 19, 2026 • Age: 10 hours

現在のステータス

高度 1223.8 km
速度 7.24 km/s
衛星直下点 -83.96°S, 55.97°E
打ち上げ日 Mar 21, 2020
運用期間 6.2 years
タイプ internet

技術仕様

分類 Payload
質量 148.00 kg
乾燥質量 140.00 kg
総質量 148.00 kg
長さ 1.30 m
直径 1.00 m
スパン 5.00 m
形状 Trapezoid+2 pan
製造者 ONEWUS
バスタイプ ARROW
フェーズステータス In Orbit
所有者/国 ONEWEB/UK

Most Searched